Home   Weather   Eindhoven   Past weeks

Flag for Netherlands Past Weather in Eindhoven, Netherlands — Yesterday and Last 2 Weeks

50 °F


Feels Like: 49 °F
Forecast: 46 / 59 °F
Wind: 3 mph from Southwest

Location: Eindhoven Airport

Current Time: Oct 26, 2016 at 11:34:38 AM

Latest Report: Oct 26, 2016 at 10:55 AM

Visibility: 3 mi

Pressure: 30.39 "Hg

Humidity: 82%

Dew Point: 45 °F

Location of EindhovenLocation

Past Weather in Eindhoven — Graph


Eindhoven Temperature Yesterday

Maximum temperature yesterday: 50 °F (at 3:25 PM)
Minimum temperature yesterday: 46 °F (at 2:25 AM)
Average temperature yesterday: 48 °F

High & Low Weather Summary for the Past Weeks

High68 °F (Oct 16, 2:25 PM)100% (Oct 11, 10:00 AM)30.36 "Hg (Oct 11, 10:00 AM)
Low28 °F (Oct 23, 6:55 AM)55% (Oct 11, 1:55 PM)29.65 "Hg (Oct 14, 11:55 PM)
Average48 °F89%30.00 "Hg
* Reported Oct 11 10:00 AM — Oct 26 10:25 AM, Eindhoven, Weather by CustomWeather, © 2016

Note: Actual official high and low records may vary slightly from our data, if they occured in-between our weather recording intervals... More about our weather records


Eindhoven Weather History for the Previous 24 Hours

Scroll right to see more
Time TempWeatherWind HumidityBarometerVisibility
10:25 AM
Wed, Oct 26
46 °FFog.2 mph100%30.36 "Hg2 mi
9:55 AM45 °FFog.2 mph100%30.36 "Hg1 mi
9:25 AM41 °FFog.1 mph100%30.36 "Hg0 mi
9:00 AM41 °FFog.1 mph100%30.36 "Hg0 mi
8:55 AM41 °FFog.2 mph100%30.36 "Hg0 mi
8:25 AM41 °FFog.1 mph100%30.36 "Hg0 mi
8:04 AM45 °FFog.1 mph100%30.36 "Hg1 mi
7:55 AM45 °FFog.2 mph100%30.36 "Hg1 mi
7:25 AM45 °FFog.1 mph100%30.36 "Hg1 mi
6:55 AM46 °FFog.No wind100%30.36 "Hg2 mi
6:25 AM45 °FFog.2 mph100%30.36 "Hg1 mi
5:56 AM45 °FFog.1 mph100%30.33 "Hg0 mi
5:25 AM46 °FFog.No wind100%30.33 "Hg2 mi
4:55 AM46 °FFog.2 mph100%30.33 "Hg2 mi
4:25 AM46 °FFog.1 mph100%30.33 "Hg2 mi
3:55 AM46 °FFog.No wind100%30.33 "Hg2 mi
3:25 AM46 °FFog.1 mph100%30.33 "Hg2 mi
3:01 AM48 °FFog.1 mph94%30.33 "Hg2 mi
2:55 AM48 °FFog.1 mph94%30.33 "Hg2 mi
2:25 AM48 °FFog.1 mph94%30.33 "Hg2 mi
1:55 AM48 °FFog.1 mph94%30.33 "Hg2 mi
1:25 AM48 °FFog.1 mph94%30.33 "Hg3 mi
1:01 AM48 °FFog.2 mph94%30.33 "Hg3 mi
12:55 AM48 °FFog.2 mph94%30.33 "Hg2 mi
12:25 AM48 °FFog.1 mph94%30.33 "Hg3 mi
11:55 PM
Tue, Oct 25
48 °FFog.2 mph94%30.33 "Hg4 mi
11:25 PM48 °FFog.2 mph94%30.33 "Hg4 mi
10:55 PM48 °FFog.3 mph94%30.33 "Hg4 mi
10:25 PM48 °FFog.3 mph94%30.33 "Hg3 mi
9:59 PM48 °FFog.1 mph100%30.33 "Hg2 mi
9:25 PM48 °FFog.2 mph100%30.30 "Hg2 mi
8:55 PM48 °FFog.1 mph100%30.30 "Hg2 mi
8:25 PM48 °FFog.1 mph100%30.30 "Hg3 mi
8:02 PM48 °FFog.3 mph100%30.30 "Hg3 mi
7:55 PM48 °FFog.3 mph100%30.30 "Hg2 mi
7:25 PM48 °FFog.3 mph100%30.27 "Hg2 mi
6:59 PM48 °FFog.1 mph100%30.27 "Hg2 mi
6:25 PM50 °FFog.1 mph94%30.27 "Hg3 mi
5:55 PM50 °FFog.1 mph88%30.27 "Hg3 mi
5:25 PM50 °FFog.1 mph94%30.27 "Hg3 mi
4:55 PM50 °FFog.1 mph88%30.24 "Hg4 mi
4:25 PM50 °FFog.1 mph88%30.24 "Hg3 mi
3:55 PM50 °FFog.1 mph88%30.24 "Hg3 mi
3:25 PM50 °FFog.1 mph88%30.24 "Hg2 mi
2:55 PM48 °FFog.1 mph94%30.24 "Hg2 mi
2:25 PM48 °FFog.2 mph94%30.24 "Hg2 mi
1:55 PM48 °FFog.2 mph94%30.24 "Hg2 mi
1:25 PM48 °FFog.3 mph100%30.21 "Hg2 mi
12:55 PM48 °FFog.No wind94%30.21 "Hg2 mi
12:25 PM48 °FFog.3 mph100%30.21 "Hg1 mi
12:03 PM48 °FFog.3 mph100%30.21 "Hg1 mi
11:25 AM48 °FFog.5 mph100%30.18 "Hg1 mi
Weather by CustomWeather, © 2016

See weather overviewHow to use our weather pages